Orbital Elements at Epoch 2459200.5 (2020-Dec-17.0) TDB
Reference: JPL 18 (heliocentric ecliptic J2000)
Element | Value | Uncertainty (1-sigma) | Units |
e | .1735291854595931 | 3.9559e-08 | |
a | 3.043112452292075 | 2.0433e-08 | au |
q | 2.515043627183886 | 1.2908e-07 | au |
i | 7.163347116340947 | 5.5155e-06 | deg |
node | 58.34085885659979 | 3.471e-05 | deg |
peri | 51.03027132942967 | 3.9354e-05 | deg |
M | 309.9722180625672 | 1.7908e-05 | deg |
tp | 2459469.953715216180 (2021-Sep-12.45371522) | 9.7526e-05 | TDB |
period | 1938.989371928217 5.31 | 1.9529e-05 5.347e-08 | d yr |
n | .1856637304009563 | 1.8699e-09 | deg/d |
Q | 3.571181277400263 | 2.3979e-08 | au |
|
| | Orbit Determination Parameters
Additional Information
|